FW6582 Weather Reports


time (UTC)temp
C
wind
direction
speed
KPH
gust
KPH
rain 1hr
cm
rain 24hr
cm
rain mn
cm
humidity
%
barometer
mb
20260505035516 7 338 1.6 6.4 0.23 0.23 0.23 88 1014.9
20260505034516 7 315 4.8 9.7 0.20 0.20 0.20 88 1014.8
20260505033556 8 338 6.4 12.9 0.15 0.15 0.15 87 1014.5
20260505032536 8 0 6.4 12.9 0.13 0.13 0.13 85 1014.6
20260505031516 8 0 8.0 17.7 0.05 0.05 0.08 82 1014.7
20260505030556 10 338 11.3 22.5 0.00 0.00 0.00 76 1014.6
20260505025516 10 0 6.4 14.5 0.00 0.00 0.00 72 1014.3
20260505024516 10 0.0 0.0 0.00 0.00 0.00 72 1013.8
20260505023516 10 0.0 0.0 0.00 0.00 0.00 71 1013.1
20260505022516 10 0.0 0.0 0.00 0.00 0.00 73 1013.0
20260505021516 10 0 1.6 3.2 0.00 0.00 0.00 74 1013.0
20260505020516 10 0.0 1.6 0.00 0.00 0.00 73 1012.1
20260505015516 10 0.0 0.0 0.00 0.00 0.00 72 1012.2
20260505014516 10 0.0 0.0 0.00 0.00 0.00 70 1012.5
20260505013516 11 0 1.6 4.8 0.00 0.00 0.00 71 1012.1
20260505012516 11 0 1.6 4.8 0.00 0.00 0.00 71 1012.1
20260505011516 11 0 3.2 8.0 0.00 0.00 0.00 70 1012.1
20260505010516 11 338 4.8 9.7 0.00 0.00 0.00 68 1011.3
20260505005536 11 45 6.4 12.9 0.00 0.00 0.00 67 1011.1
20260505004517 11 293 1.6 8.0 0.00 0.00 0.00 67 1011.1
20260505003516 11 23 4.8 11.3 0.00 0.00 0.00 64 1010.0
20260505002516 11 315 8.0 17.7 0.00 0.00 0.00 63 1010.0
20260505001516 12 315 9.7 22.5 0.00 0.00 0.00 57 1010.5
20260505000516 13 315 9.7 17.7 0.00 0.00 0.00 51 1010.1
20260504235516 13 0 6.4 16.1 0.00 0.00 0.00 50 1009.7
20260504234536 13 338 11.3 22.5 0.00 0.00 0.00 49 1009.2
20260504233516 13 0 14.5 27.4 0.00 0.00 0.00 48 1008.6
20260504232516 13 338 11.3 27.4 0.00 0.00 0.00 50 1008.7
20260504231516 14 338 16.1 24.1 0.00 0.00 0.00 46 1008.5
20260504230516 14 338 17.7 30.6 0.00 0.00 0.00 44 1008.5
20260504225516 14 338 17.7 30.6 0.00 0.00 0.00 43 1008.3
20260504224516 14 338 22.5 40.2 0.00 0.00 0.00 43 1008.5
20260504223516 15 338 22.5 41.8 0.00 0.00 0.00 41 1008.9
20260504222516 16 0 16.1 25.7 0.00 0.00 0.00 39 1009.3
20260504221516 16 338 19.3 40.2 0.00 0.00 0.00 37 1009.4
20260504220516 18 0 14.5 32.2 0.00 0.00 0.00 32 1010.1
20260504215516 18 68 8.0 14.5 0.00 0.00 0.00 30 1009.6
20260504214536 17 90 6.4 14.5 0.00 0.00 0.00 31 1009.2
20260504213516 17 90 4.8 12.9 0.00 0.00 0.00 31 1010.2
20260504212516 18 68 6.4 14.5 0.00 0.00 0.00 31 1010.2
20260504211517 18 90 9.7 24.1 0.00 0.00 0.00 32 1010.4
20260504210516 19 45 8.0 20.9 0.00 0.00 0.00 31 1011.0
20260504205516 18 338 14.5 24.1 0.00 0.00 0.00 31 1010.9
20260504204516 18 0 17.7 32.2 0.00 0.00 0.00 32 1011.0
20260504203556 18 0 14.5 24.1 0.00 0.00 0.00 32 1011.3
20260504202516 18 338 11.3 22.5 0.00 0.00 0.00 34 1011.6
20260504201516 18 0 12.9 29.0 0.00 0.00 0.00 32 1011.6
20260504200516 18 338 12.9 20.9 0.00 0.00 0.00 33 1012.1
20260504195516 18 45 11.3 27.4 0.00 0.00 0.00 32 1012.1
20260504194516 18 68 9.7 20.9 0.00 0.00 0.00 32 1012.0
20260504193516 18 45 14.5 25.7 0.00 0.00 0.00 32 1013.2
20260504192516 18 0 14.5 33.8 0.00 0.00 0.00 32 1013.1
20260504191516 17 0 16.1 30.6 0.00 0.00 0.00 35 1012.6
20260504190515 16 338 17.7 30.6 0.00 0.00 0.00 37 1012.4
20260504185535 16 23 11.3 30.6 0.00 0.00 0.00 36 1012.2
20260504184516 16 90 12.9 33.8 0.00 0.00 0.00 36 1012.4
20260504183516 16 315 11.3 30.6 0.00 0.00 0.00 34 1013.3
20260504182516 16 225 14.5 37.0 0.00 0.00 0.00 30 1012.6
20260504181516 17 135 9.7 25.7 0.00 0.00 0.00 29 1012.9
20260504180536 17 90 4.8 12.9 0.00 0.00 0.00 26 1012.6
20260504175536 18 90 8.0 16.1 0.00 0.00 0.00 29 1012.6
20260504174515 18 68 8.0 12.9 0.00 0.00 0.00 27 1013.0
20260504173536 20 45 4.8 8.0 0.00 0.00 0.00 25 1013.1
20260504172516 20 45 6.4 14.5 0.00 0.00 0.00 24 1013.6
20260504171516 20 45 4.8 9.7 0.00 0.00 0.00 23 1013.7
20260504170537 20 338 9.7 16.1 0.00 0.00 0.00 24 1013.8
20260504150518 17 203 4.8 8.0 0.00 0.00 0.00 27 1014.1
20260504140558 15 225 3.2 8.0 0.00 0.00 0.00 29 1014.3
20260504130517 13 203 4.8 12.9 0.00 0.00 0.00 29 1013.9
20260504110517 6 0.0 3.2 0.00 0.00 0.00 48 1012.0
20260504100558 7 0.0 4.8 0.00 0.00 0.00 46 1013.2
20260504081538 9 0.0 3.2 0.00 0.00 0.00 38 1014.3
20260504080517 10 45 1.6 4.8 0.00 0.00 0.00 37 1014.4
20260504050516 14 203 4.8 11.3 0.00 0.00 0.00 32 1016.2
20260504045516 13 203 1.6 8.0 0.00 0.00 0.00 34 1015.9
20260504044516 13 203 3.2 6.4 0.00 0.00 0.00 33 1016.0
20260504043516 14 203 4.8 9.7 0.00 0.00 0.00 33 1016.4
20260504042536 13 180 3.2 14.5 0.00 0.00 0.00 33 1016.2
20260504041516 14 225 3.2 6.4 0.00 0.00 0.00 33 1016.6
20260504040517 15 203 4.8 14.5 0.00 0.00 0.00 32 1016.3